GW0070 Weather Reports


time (UTC)temp
C
wind
direction
speed
KPH
gust
KPH
rain 1hr
cm
rain 24hr
cm
rain mn
cm
humidity
%
barometer
mb
20260506213050 18 300 8.0 16.1 0.00 0.00 0.00 74 1019.9
20260506212513 18 297 8.0 16.1 0.00 0.00 0.00 73 1020.0
20260506212014 18 264 4.8 16.1 0.00 0.00 0.00 73 1019.8
20260506211552 18 266 8.0 14.5 0.00 0.00 0.00 73 1019.8
20260506211015 19 285 4.8 11.3 0.00 0.00 0.00 72 1020.0
20260506210513 19 276 8.0 11.3 0.00 0.00 0.00 74 1019.8
20260506210047 18 271 0.0 11.3 0.00 0.00 0.00 73 1020.0
20260506205512 18 270 3.2 11.3 0.00 0.00 0.00 74 1020.1
20260506205013 18 249 6.4 11.3 0.00 0.00 0.00 74 1019.9
20260506204539 18 232 4.8 14.5 0.00 0.00 0.00 75 1019.8
20260506204014 18 262 9.7 14.5 0.00 0.00 0.00 75 1019.9
20260506203514 18 272 6.4 12.9 0.00 0.00 0.00 75 1019.9
20260506203049 18 248 4.8 12.9 0.00 0.00 0.00 75 1020.0
20260506202515 18 275 6.4 14.5 0.00 0.00 0.00 75 1020.2
20260506202015 18 303 8.0 14.5 0.00 0.00 0.00 74 1020.3
20260506201543 18 292 8.0 12.9 0.00 0.00 0.00 75 1020.3
20260506201014 17 276 6.4 16.1 0.00 0.00 0.00 75 1020.5
20260506200511 17 286 11.3 17.7 0.00 0.00 0.00 76 1020.3
20260506200051 17 253 12.9 19.3 0.00 0.00 0.00 76 1020.2
20260506195514 17 260 16.1 19.3 0.00 0.00 0.00 76 1020.2
20260506195016 17 255 12.9 19.3 0.00 0.00 0.00 77 1020.2
20260506194549 17 255 9.7 17.7 0.00 0.00 0.00 77 1020.4
20260506194015 17 273 11.3 22.5 0.00 0.00 0.00 77 1020.4
20260506193514 17 277 17.7 22.5 0.00 0.00 0.00 77 1020.4
20260506193057 17 268 12.9 17.7 0.00 0.00 0.00 78 1020.5
20260506192517 17 264 9.7 20.9 0.00 0.00 0.00 77 1020.7
20260506192014 17 241 14.5 20.9 0.00 0.00 0.00 77 1020.6
20260506191553 17 243 12.9 19.3 0.00 0.00 0.00 77 1020.6
20260506191014 17 249 12.9 17.7 0.00 0.00 0.00 76 1020.8
20260506190518 17 280 8.0 16.1 0.00 0.00 0.00 76 1020.8
20260506190053 17 233 4.8 14.5 0.00 0.00 0.00 76 1020.7
20260506185514 17 239 6.4 14.5 0.00 0.00 0.00 77 1020.8
20260506185014 18 251 3.2 11.3 0.00 0.00 0.00 76 1020.8
20260506184557 18 291 1.6 11.3 0.00 0.00 0.00 80 1020.9
20260506184013 17 248 6.4 14.5 0.00 0.00 0.00 80 1020.8
20260506183514 17 269 9.7 16.1 0.00 0.00 0.00 81 1020.8
20260506183105 16 286 8.0 16.1 0.00 0.00 0.00 80 1020.8
20260506182515 16 280 11.3 14.5 0.00 0.00 0.00 80 1020.8
20260506182017 16 251 3.2 14.5 0.00 0.00 0.00 80 1020.9
20260506181606 16 282 9.7 14.5 0.00 0.00 0.00 80 1020.7
20260506181013 16 251 8.0 16.1 0.00 0.00 0.00 81 1020.9
20260506180516 16 234 9.7 17.7 0.00 0.00 0.00 81 1020.8
20260506180100 16 271 4.8 17.7 0.00 0.00 0.00 81 1020.8
20260506175519 16 239 9.7 16.1 0.00 0.00 0.00 83 1020.7
20260506175016 16 235 6.4 20.9 0.00 0.00 0.00 82 1020.7
20260506174553 16 227 14.5 20.9 0.00 0.00 0.00 83 1020.6
20260506174019 16 244 14.5 19.3 0.00 0.00 0.00 83 1020.6
20260506173515 15 263 9.7 20.9 0.00 0.00 0.00 84 1020.8
20260506173122 15 237 14.5 20.9 0.00 0.00 0.00 84 1020.8
20260506172513 15 232 12.9 19.3 0.00 0.00 0.00 82 1020.7
20260506172015 15 254 12.9 20.9 0.00 0.00 0.00 84 1020.7
20260506171557 15 242 16.1 22.5 0.00 0.00 0.00 83 1020.6
20260506171017 15 247 17.7 22.5 0.00 0.00 0.00 83 1020.7
20260506170516 15 237 16.1 22.5 0.00 0.00 0.00 83 1020.6
20260506170107 15 241 16.1 22.5 0.00 0.00 0.00 84 1020.5
20260506165517 14 246 16.1 22.5 0.00 0.00 0.00 83 1020.7
20260506165017 14 236 17.7 24.1 0.00 0.00 0.00 84 1020.5
20260506164601 14 235 19.3 24.1 0.00 0.00 0.00 84 1020.5
20260506164018 14 245 19.3 24.1 0.00 0.00 0.00 85 1020.5
20260506163515 13 244 17.7 24.1 0.00 0.00 0.00 85 1020.5
20260506163059 13 245 19.3 24.1 0.00 0.00 0.00 85 1020.4
20260506162516 13 247 19.3 25.7 0.00 0.00 0.00 85 1020.4
20260506162020 13 239 19.3 24.1 0.00 0.00 0.00 86 1020.6
20260506161559 13 249 20.9 25.7 0.00 0.00 0.00 87 1020.6
20260506161018 13 242 22.5 25.7 0.00 0.00 0.00 86 1020.6
20260506160515 13 243 19.3 24.1 0.00 0.00 0.00 87 1020.6
20260506160100 13 239 20.9 24.1 0.00 0.00 0.00 87 1020.6
20260506155515 13 249 19.3 24.1 0.00 0.00 0.00 88 1020.7
20260506155015 13 241 20.9 24.1 0.00 0.00 0.00 88 1020.7
20260506154614 12 233 19.3 24.1 0.00 0.00 0.00 88 1020.8
20260506154015 12 243 19.3 25.7 0.00 0.00 0.00 89 1020.6
20260506153518 12 241 17.7 25.7 0.00 0.00 0.00 89 1020.7
20260506153059 12 245 19.3 24.1 0.00 0.00 0.00 89 1020.6
20260506152517 12 241 19.3 24.1 0.00 0.00 0.00 89 1020.5
20260506152016 12 239 19.3 25.7 0.00 0.00 0.00 90 1020.4
20260506151603 12 248 19.3 25.7 0.00 0.00 0.00 91 1020.5
20260506151017 12 241 22.5 25.7 0.00 0.00 0.00 90 1020.5
20260506150518 12 238 20.9 25.7 0.00 0.00 0.00 90 1020.3
20260506150057 12 245 22.5 25.7 0.00 0.00 0.00 91 1020.1
20260506145520 12 243 22.5 25.7 0.00 0.00 0.00 91 1020.1
20260506145017 12 237 20.9 29.0 0.00 0.00 0.00 91 1020.1
20260506144609 12 249 22.5 29.0 0.00 0.00 0.00 91 1020.4
20260506144018 12 245 20.9 29.0 0.00 0.00 0.00 91 1020.4
20260506143519 11 251 24.1 29.0 0.00 0.00 0.00 91 1020.0
20260506143102 11 253 25.7 30.6 0.00 0.00 0.00 91 1020.1
20260506142517 11 251 25.7 30.6 0.00 0.00 0.00 92 1019.9
20260506142015 11 254 25.7 30.6 0.00 0.00 0.00 92 1019.8
20260506141600 11 239 24.1 29.0 0.00 0.00 0.00 92 1019.9
20260506141017 11 253 24.1 29.0 0.00 0.00 0.00 92 1019.6
20260506140519 11 254 24.1 33.8 0.00 0.00 0.00 91 1019.7
20260506140116 11 250 25.7 30.6 0.00 0.00 0.00 91 1019.7
20260506135519 11 245 22.5 29.0 0.00 0.00 0.00 91 1019.6
20260506135017 11 253 24.1 33.8 0.00 0.00 0.00 91 1019.5
20260506134614 11 245 27.4 33.8 0.00 0.00 0.00 91 1019.4
20260506134017 11 249 24.1 32.2 0.00 0.00 0.00 90 1019.4
20260506133521 11 250 24.1 32.2 0.00 0.00 0.00 90 1019.4
20260506133128 11 248 24.1 32.2 0.00 0.00 0.00 90 1019.5
20260506132517 11 253 24.1 30.6 0.00 0.00 0.00 90 1019.5
20260506132021 11 241 27.4 32.2 0.00 0.00 0.00 90 1019.4
20260506131555 11 242 25.7 32.2 0.00 0.00 0.00 90 1019.3
20260506131020 11 256 22.5 30.6 0.00 0.00 0.00 90 1019.4
20260506130517 11 259 24.1 32.2 0.00 0.00 0.00 90 1019.3
20260506130123 11 245 24.1 33.8 0.00 0.00 0.00 90 1019.3
20260506125520 11 239 27.4 33.8 0.00 0.00 0.00 90 1019.3
20260506125016 11 256 27.4 38.6 0.00 0.00 0.00 90 1019.1
20260506124622 11 256 30.6 38.6 0.00 0.00 0.00 90 1019.2
20260506124017 11 244 29.0 35.4 0.00 0.00 0.00 90 1019.1
20260506123515 11 247 27.4 37.0 0.00 0.00 0.00 91 1019.0
20260506123119 11 251 30.6 37.0 0.00 0.00 0.00 90 1018.9
20260506122519 11 251 29.0 37.0 0.00 0.00 0.00 90 1019.0
20260506122011 11 246 32.2 37.0 0.00 0.00 0.00 90 1018.9
20260506121528 11 248 27.4 35.4 0.00 0.00 0.00 90 1018.9
20260506121009 11 239 29.0 33.8 0.00 0.00 0.00 91 1019.0
20260506120511 11 243 27.4 38.6 0.00 0.00 0.00 90 1019.0
20260506120030 11 241 29.0 38.6 0.00 0.00 0.00 90 1019.1
20260506115508 11 247 29.0 37.0 0.00 0.00 0.00 90 1019.0
20260506115008 11 252 24.1 37.0 0.00 0.00 0.00 90 1019.1
20260506114529 11 243 27.4 33.8 0.00 0.00 0.00 90 1019.0
20260506114009 11 245 29.0 35.4 0.00 0.00 0.00 90 1018.9
20260506113508 11 242 29.0 35.4 0.00 0.00 0.00 90 1018.9
20260506113028 11 257 22.5 35.4 0.00 0.00 0.00 90 1018.9
20260506112509 11 237 29.0 35.4 0.00 0.00 0.00 90 1018.7
20260506112009 11 228 25.7 35.4 0.00 0.00 0.00 89 1018.9
20260506111528 11 239 24.1 33.8 0.00 0.00 0.00 90 1018.8
20260506111011 11 246 24.1 33.8 0.00 0.00 0.00 90 1018.7
20260506110511 11 243 19.3 33.8 0.00 0.00 0.00 89 1018.8
20260506110028 11 251 22.5 32.2 0.00 0.00 0.00 90 1018.6
20260506105508 11 263 19.3 32.2 0.00 0.00 0.00 90 1019.1
20260506105008 11 244 25.7 33.8 0.00 0.00 0.00 90 1018.8
20260506104554 11 241 25.7 35.4 0.00 0.00 0.00 89 1018.7
20260506104009 11 236 29.0 37.0 0.00 0.00 0.00 89 1018.6
20260506103510 11 244 30.6 37.0 0.00 0.00 0.00 88 1018.3
20260506103032 11 251 30.6 40.2 0.00 0.00 0.00 88 1018.3
20260506102508 11 242 32.2 38.6 0.00 0.00 0.00 88 1018.3
20260506102009 11 246 30.6 38.6 0.00 0.00 0.00 88 1018.1
20260506101529 11 245 30.6 38.6 0.00 0.00 0.00 89 1018.3
20260506101007 11 249 30.6 38.6 0.00 0.00 0.00 89 1018.1
20260506100508 11 238 32.2 41.8 0.00 0.00 0.00 89 1018.0
20260506100039 11 247 35.4 43.5 0.00 0.00 0.00 89 1018.0
20260506095511 11 246 32.2 43.5 0.00 0.03 0.00 90 1018.2
20260506095009 11 245 33.8 43.5 0.00 0.03 0.00 89 1018.0
20260506094533 11 240 33.8 43.5 0.00 0.03 0.00 89 1018.0
20260506094012 11 251 32.2 40.2 0.00 0.03 0.00 89 1018.2
20260506093513 11 257 32.2 38.6 0.00 0.03 0.00 89 1018.2
20260506093028 11 254 32.2 40.2 0.00 0.03 0.00 88 1018.0
20260506092507 11 253 33.8 40.2 0.00 0.03 0.00 88 1018.3
20260506092013 11 246 32.2 40.2 0.00 0.03 0.00 88 1018.5
20260506091529 11 249 30.6 37.0 0.00 0.03 0.00 88 1018.3
20260506091010 11 237 30.6 38.6 0.00 0.03 0.00 88 1018.4
20260506090511 11 238 29.0 38.6 0.00 0.03 0.00 89 1018.5
20260506090035 11 247 32.2 45.1 0.00 0.03 0.00 88 1018.4
20260506085511 11 253 33.8 45.1 0.00 0.08 0.00 88 1018.1
20260506085008 11 243 29.0 37.0 0.00 0.08 0.00 88 1018.5
20260506084527 11 255 29.0 37.0 0.00 0.08 0.00 88 1018.6
20260506084012 11 255 27.4 37.0 0.00 0.08 0.00 88 1018.4
20260506083512 11 241 25.7 41.8 0.00 0.08 0.00 88 1018.6
20260506083037 11 240 33.8 41.8 0.00 0.08 0.00 87 1018.4
20260506082510 11 237 33.8 41.8 0.00 0.08 0.00 88 1018.1
20260506082007 11 224 29.0 41.8 0.00 0.08 0.00 88 1018.4
20260506081526 11 249 32.2 41.8 0.00 0.08 0.00 88 1018.1
20260506081010 11 239 33.8 41.8 0.00 0.08 0.00 89 1018.2
20260506080508 11 247 32.2 41.8 0.00 0.08 0.00 90 1018.4
20260506073512 11 241 40.2 51.5 0.00 0.23 0.00 89 1017.0
20260506073030 11 258 43.5 51.5 0.00 0.23 0.00 89 1017.0
20260506072512 11 246 41.8 49.9 0.00 0.23 0.00 89 1016.9
20260506072011 11 254 45.1 51.5 0.00 0.23 0.00 88 1017.0
20260506071529 11 249 43.5 51.5 0.00 0.23 0.00 88 1017.0
20260506071012 11 244 41.8 51.5 0.00 0.23 0.00 88 1017.0
20260506070507 11 246 41.8 48.3 0.00 0.23 0.00 88 1017.0
20260506062512 11 247 38.6 46.7 0.00 0.28 0.23 87 1017.1
20260506062011 12 240 37.0 45.1 0.00 0.28 0.23 87 1016.9
20260506061528 12 243 37.0 48.3 0.00 0.28 0.23 87 1016.8
20260506061013 12 235 40.2 48.3 0.00 0.28 0.23 86 1016.7
20260506060514 12 243 41.8 48.3 0.00 0.28 0.23 86 1017.0
20260506051012 12 255 45.1 53.1 0.00 0.43 0.23 85 1016.4
20260506050510 12 241 43.5 51.5 0.00 0.43 0.23 85 1016.3
20260506045008 12 233 43.5 48.3 0.00 0.61 0.23 86 1016.0
20260506044533 12 252 41.8 48.3 0.00 0.61 0.23 85 1016.0
20260506044011 12 240 40.2 46.7 0.00 0.61 0.23 86 1016.1
20260506043511 12 255 37.0 48.3 0.00 0.61 0.23 86 1016.1
20260506043028 12 256 41.8 48.3 0.00 0.61 0.23 86 1016.0
20260506042513 12 263 41.8 48.3 0.00 0.61 0.23 86 1016.1
20260506042012 12 253 41.8 48.3 0.00 0.61 0.23 86 1015.9
20260506041528 12 238 40.2 46.7 0.00 0.61 0.23 86 1015.8
20260506041011 12 247 38.6 45.1 0.00 0.61 0.23 86 1015.8
20260506040511 12 249 35.4 45.1 0.00 0.61 0.23 86 1016.0
20260506040042 12 244 38.6 45.1 0.00 0.61 0.23 85 1016.0
20260506035510 12 252 38.6 45.1 0.00 0.74 0.23 85 1016.0
20260506035010 12 241 38.6 46.7 0.00 0.74 0.23 85 1015.7
20260506034530 12 253 40.2 46.7 0.00 0.74 0.23 85 1015.6
20260506034010 12 247 32.2 45.1 0.00 0.74 0.23 85 1015.9
20260506033511 12 255 37.0 45.1 0.00 0.74 0.23 84 1016.0
20260506033029 12 258 38.6 49.9 0.00 0.74 0.23 84 1015.8
20260506032511 13 250 35.4 49.9 0.00 0.74 0.23 84 1015.9
20260506032011 13 246 38.6 46.7 0.00 0.74 0.23 84 1015.3
20260506031530 13 247 41.8 46.7 0.00 0.74 0.23 84 1015.3
20260506031012 13 258 40.2 46.7 0.00 0.74 0.23 85 1015.2
20260506030511 13 258 35.4 45.1 0.00 0.74 0.23 85 1014.9
20260506030028 13 247 40.2 48.3 0.00 0.74 0.23 85 1014.8
20260506025512 13 255 40.2 48.3 0.00 0.79 0.23 85 1014.7
20260506025012 13 260 37.0 45.1 0.00 0.79 0.23 85 1015.0
20260506024536 13 247 38.6 46.7 0.00 0.79 0.23 84 1014.6
20260506024009 13 261 40.2 48.3 0.00 0.79 0.23 84 1014.6
20260506023514 13 244 38.6 48.3 0.00 0.79 0.23 84 1014.5
20260506023030 13 243 40.2 49.9 0.00 0.79 0.23 84 1014.4
20260506022511 13 249 43.5 49.9 0.00 0.79 0.23 84 1014.2
20260506022011 13 235 37.0 45.1 0.00 0.79 0.23 83 1014.4
20260506021543 14 259 38.6 45.1 0.00 0.79 0.23 83 1014.4
20260506021010 14 242 38.6 43.5 0.00 0.79 0.23 83 1014.4
20260506020513 14 243 38.6 43.5 0.00 0.79 0.23 83 1014.6
20260506020030 14 237 35.4 46.7 0.00 0.79 0.23 84 1014.7
20260506015512 14 239 40.2 46.7 0.00 0.79 0.23 84 1014.4
20260506015015 14 243 35.4 43.5 0.00 0.79 0.23 83 1014.5
20260506014529 14 256 35.4 41.8 0.00 0.79 0.23 83 1014.5
20260506014012 14 245 35.4 46.7 0.00 0.79 0.23 82 1014.7
20260506013512 14 231 40.2 46.7 0.00 0.79 0.23 82 1014.5
20260506013029 14 237 35.4 45.1 0.00 0.79 0.23 82 1014.4
20260506012512 14 227 37.0 43.5 0.00 0.79 0.23 82 1014.6
20260506012012 14 231 33.8 45.1 0.00 0.79 0.23 82 1014.9
20260506011531 14 241 38.6 48.3 0.00 0.79 0.23 82 1014.6
20260506011010 15 231 35.4 48.3 0.00 0.79 0.23 81 1014.4
20260506010512 14 249 37.0 40.2 0.00 0.79 0.23 82 1014.3
20260506010043 14 233 33.8 40.2 0.00 0.79 0.23 83 1014.6
20260506005512 14 233 32.2 37.0 0.00 0.81 0.23 83 1014.7
20260506005013 15 232 29.0 38.6 0.00 0.81 0.23 83 1014.9
20260506004527 15 233 29.0 38.6 0.00 0.81 0.23 84 1014.8
20260506004010 15 222 29.0 37.0 0.00 0.81 0.23 83 1014.6
20260506003512 15 221 27.4 33.8 0.00 0.81 0.23 83 1014.6
20260506003029 15 224 29.0 37.0 0.00 0.81 0.23 83 1014.4
20260506002515 15 217 29.0 37.0 0.00 0.81 0.23 82 1014.5
20260506002010 15 237 29.0 35.4 0.00 0.81 0.23 82 1014.4
20260506001528 15 225 29.0 35.4 0.00 0.81 0.23 82 1014.6
20260506001010 15 230 30.6 35.4 0.00 0.81 0.23 81 1014.3
20260506000512 15 235 27.4 33.8 0.00 0.81 0.23 81 1014.4
20260506000031 15 240 27.4 33.8 0.00 0.81 0.23 81 1014.6
20260505235511 15 246 25.7 32.2 0.00 0.81 0.23 80 1014.6
20260505235013 15 236 20.9 29.0 0.00 0.81 0.23 81 1014.8
20260505234547 15 226 20.9 29.0 0.00 0.81 0.23 81 1014.7
20260505234013 15 242 22.5 29.0 0.00 0.81 0.23 80 1014.9
20260505233516 15 242 20.9 29.0 0.00 0.81 0.23 81 1014.9
20260505233033 15 229 22.5 29.0 0.00 0.81 0.23 80 1014.9
20260505232514 15 230 20.9 30.6 0.00 0.81 0.23 80 1015.0
20260505232012 15 224 20.9 30.6 0.00 0.81 0.23 80 1015.0
20260505231532 15 231 22.5 29.0 0.00 0.81 0.23 80 1014.8
20260505231012 15 239 19.3 27.4 0.00 0.81 0.23 81 1014.8
20260505230513 15 237 22.5 27.4 0.00 0.81 0.23 81 1014.7
20260505230031 15 247 19.3 25.7 0.00 0.81 0.23 81 1014.9
20260505225511 15 246 17.7 24.1 0.00 0.81 0.23 81 1015.0
20260505225012 15 220 16.1 27.4 0.00 0.81 0.23 81 1015.0
20260505224533 15 251 19.3 27.4 0.00 0.81 0.23 81 1014.9
20260505224016 15 233 20.9 30.6 0.00 0.81 0.23 81 1015.1
20260505223511 15 237 20.9 30.6 0.00 0.81 0.23 82 1015.1
20260505223029 15 245 22.5 27.4 0.00 0.81 0.23 81 1015.2
20260505222512 15 228 20.9 27.4 0.00 0.81 0.23 81 1015.2
20260505222013 15 226 20.9 27.4 0.00 0.81 0.23 82 1015.3
20260505221529 15 237 22.5 32.2 0.00 0.81 0.23 82 1015.2
20260505221012 15 243 24.1 32.2 0.00 0.81 0.23 81 1015.1
20260505220512 14 238 19.3 29.0 0.00 0.81 0.23 82 1015.2
20260505220031 14 245 24.1 29.0 0.00 0.81 0.23 81 1015.4
20260505215512 14 220 20.9 29.0 0.00 0.81 0.23 82 1015.3
20260505215012 14 226 20.9 30.6 0.00 0.81 0.23 82 1015.4
20260505214542 14 226 24.1 30.6 0.00 0.81 0.23 82 1015.3
20260505214015 14 238 24.1 32.2 0.00 0.81 0.23 83 1015.4
20260505213512 14 245 25.7 32.2 0.00 0.81 0.23 82 1015.3